Time,TemperatureF,DewpointF,PressureIn,WindDirection,WindDirectionDegrees,WindSpeedMPH,WindSpeedGustMPH,Humidity,HourlyPrecipIn,Conditions,Clouds,dailyrainin,SoftwareType,DateUTC
2013-05-07 00:01:00,47.0,45.1,29.80,SSW,202,2.0,5.0,93,0.00,,,0.00,Weather View 32 v70,2013-05-07 04:01:00,
2013-05-07 00:02:00,47.0,45.1,29.80,SW,225,3.0,5.0,93,0.00,,,0.00,Weather View 32 v70,2013-05-07 04:02:00,
2013-05-07 00:07:00,48.0,45.8,29.80,South,180,1.0,5.0,92,0.00,,,0.00,Weather View 32 v70,2013-05-07 04:07:00,
2013-05-07 00:12:00,48.0,45.5,29.80,ENE,68,3.0,5.0,91,0.00,,,0.00,Weather View 32 v70,2013-05-07 04:12:00,
2013-05-07 00:17:00,48.0,45.5,29.81,NE,45,2.0,5.0,91,0.00,,,0.00,Weather View 32 v70,2013-05-07 04:17:00,
2013-05-07 00:22:00,47.0,44.5,29.80,ESE,112,0.0,5.0,91,0.00,,,0.00,Weather View 32 v70,2013-05-07 04:22:00,
2013-05-07 00:27:00,47.0,44.8,29.80,West,270,1.0,5.0,92,0.00,,,0.00,Weather View 32 v70,2013-05-07 04:27:00,
2013-05-07 00:32:00,47.0,44.8,29.80,West,270,1.0,5.0,92,0.00,,,0.00,Weather View 32 v70,2013-05-07 04:32:00,
2013-05-07 00:37:00,47.0,45.1,29.80,SSW,202,2.0,5.0,93,0.00,,,0.00,Weather View 32 v70,2013-05-07 04:37:00,
2013-05-07 00:42:00,47.0,45.1,29.80,WSW,248,3.0,5.0,93,0.00,,,0.00,Weather View 32 v70,2013-05-07 04:42:00,
2013-05-07 00:47:00,47.0,45.4,29.80,WSW,248,1.0,5.0,94,0.00,,,0.00,Weather View 32 v70,2013-05-07 04:47:00,
2013-05-07 00:52:00,47.0,45.4,29.80,SE,135,2.0,5.0,94,0.00,,,0.00,Weather View 32 v70,2013-05-07 04:52:00,
2013-05-07 00:57:00,46.0,44.4,29.81,East,90,3.0,5.0,94,0.00,,,0.00,Weather View 32 v70,2013-05-07 04:57:00,
2013-05-07 01:02:00,46.0,44.4,29.81,ENE,68,1.0,4.0,94,0.00,,,0.00,Weather View 32 v70,2013-05-07 05:02:00,
2013-05-07 01:07:00,46.0,44.4,29.81,East,90,1.0,4.0,94,0.00,,,0.00,Weather View 32 v70,2013-05-07 05:07:00,
2013-05-07 01:12:00,46.0,44.6,29.81,SSW,202,1.0,4.0,95,0.00,,,0.00,Weather View 32 v70,2013-05-07 05:12:00,
2013-05-07 01:17:00,46.0,44.6,29.81,South,180,2.0,4.0,95,0.00,,,0.00,Weather View 32 v70,2013-05-07 05:17:00,
2013-05-07 01:22:00,46.0,44.9,29.80,SSW,202,3.0,5.0,96,0.00,,,0.00,Weather View 32 v70,2013-05-07 05:22:00,
2013-05-07 01:27:00,46.0,44.9,29.80,SSW,202,3.0,5.0,96,0.00,,,0.00,Weather View 32 v70,2013-05-07 05:27:00,
2013-05-07 01:32:00,45.0,44.2,29.80,ESE,112,2.0,5.0,97,0.00,,,0.00,Weather View 32 v70,2013-05-07 05:32:00,
2013-05-07 01:37:00,45.0,44.2,29.80,SW,225,3.0,5.0,97,0.00,,,0.00,Weather View 32 v70,2013-05-07 05:37:00,
2013-05-07 01:42:00,45.0,44.2,29.80,WSW,248,3.0,5.0,97,0.00,,,0.00,Weather View 32 v70,2013-05-07 05:42:00,
2013-05-07 01:47:00,45.0,44.2,29.79,SSW,202,1.0,5.0,97,0.00,,,0.00,Weather View 32 v70,2013-05-07 05:47:00,
2013-05-07 01:52:00,45.0,44.2,29.79,ESE,112,0.0,5.0,97,0.00,,,0.00,Weather View 32 v70,2013-05-07 05:52:00,
2013-05-07 01:57:00,45.0,44.2,29.79,SE,135,0.0,5.0,97,0.00,,,0.00,Weather View 32 v70,2013-05-07 05:57:00,
2013-05-07 02:02:00,45.0,44.2,29.79,NNE,22,0.0,5.0,97,0.00,,,0.00,Weather View 32 v70,2013-05-07 06:02:00,
2013-05-07 02:07:00,45.0,44.2,29.79,ENE,68,3.0,5.0,97,0.00,,,0.00,Weather View 32 v70,2013-05-07 06:07:00,
2013-05-07 02:12:00,45.0,44.2,29.79,ENE,68,5.0,5.0,97,0.00,,,0.00,Weather View 32 v70,2013-05-07 06:12:00,
2013-05-07 02:17:00,44.0,43.5,29.79,ESE,112,2.0,6.0,98,0.00,,,0.00,Weather View 32 v70,2013-05-07 06:17:00,
2013-05-07 02:22:00,44.0,43.7,29.79,ESE,112,0.0,6.0,99,0.00,,,0.00,Weather View 32 v70,2013-05-07 06:22:00,
2013-05-07 02:27:00,44.0,43.7,29.79,North,0,2.0,6.0,99,0.00,,,0.00,Weather View 32 v70,2013-05-07 06:27:00,
2013-05-07 02:32:00,44.0,43.7,29.79,SW,225,3.0,6.0,99,0.00,,,0.00,Weather View 32 v70,2013-05-07 06:32:00,
2013-05-07 02:37:00,44.0,44.0,29.79,SSW,202,3.0,6.0,100,0.00,,,0.00,Weather View 32 v70,2013-05-07 06:37:00,
2013-05-07 02:42:00,44.0,44.0,29.79,SSW,202,3.0,6.0,100,0.00,,,0.00,Weather View 32 v70,2013-05-07 06:42:00,
2013-05-07 02:47:00,44.0,44.0,29.79,SW,225,4.0,6.0,100,0.00,,,0.00,Weather View 32 v70,2013-05-07 06:47:00,
2013-05-07 02:52:00,44.0,44.0,29.78,SSW,202,3.0,6.0,100,0.00,,,0.00,Weather View 32 v70,2013-05-07 06:52:00,
2013-05-07 02:57:00,45.0,45.0,29.78,SW,225,0.0,7.0,100,0.00,,,0.00,Weather View 32 v70,2013-05-07 06:57:00,
2013-05-07 03:02:00,45.0,44.7,29.79,NE,45,0.0,7.0,99,0.00,,,0.00,Weather View 32 v70,2013-05-07 07:02:00,
2013-05-07 03:08:00,45.0,44.7,29.79,East,90,0.0,7.0,99,0.00,,,0.00,Weather View 32 v70,2013-05-07 07:08:00,
2013-05-07 03:13:00,45.0,44.7,29.78,WSW,248,3.0,7.0,99,0.00,,,0.00,Weather View 32 v70,2013-05-07 07:13:00,
2013-05-07 03:18:00,45.0,44.5,29.78,WSW,248,3.0,7.0,98,0.00,,,0.00,Weather View 32 v70,2013-05-07 07:18:00,
2013-05-07 03:23:00,46.0,45.5,29.78,West,270,6.0,7.0,98,0.00,,,0.00,Weather View 32 v70,2013-05-07 07:23:00,
2013-05-07 03:28:00,46.0,45.5,29.78,WSW,248,3.0,7.0,98,0.00,,,0.00,Weather View 32 v70,2013-05-07 07:28:00,
2013-05-07 03:33:00,46.0,45.5,29.78,SW,225,1.0,7.0,98,0.00,,,0.00,Weather View 32 v70,2013-05-07 07:33:00,
2013-05-07 03:38:00,46.0,45.5,29.78,West,270,3.0,7.0,98,0.00,,,0.00,Weather View 32 v70,2013-05-07 07:38:00,
2013-05-07 03:43:00,47.0,46.5,29.78,WSW,248,3.0,7.0,98,0.00,,,0.00,Weather View 32 v70,2013-05-07 07:43:00,
2013-05-07 03:48:00,47.0,46.7,29.78,West,270,3.0,7.0,99,0.00,,,0.00,Weather View 32 v70,2013-05-07 07:48:00,
2013-05-07 03:53:00,47.0,46.7,29.78,West,270,1.0,7.0,99,0.00,,,0.00,Weather View 32 v70,2013-05-07 07:53:00,
2013-05-07 03:58:00,47.0,46.7,29.78,WSW,248,3.0,7.0,99,0.00,,,0.00,Weather View 32 v70,2013-05-07 07:58:00,
2013-05-07 04:03:00,47.0,46.7,29.78,WSW,248,2.0,7.0,99,0.00,,,0.00,Weather View 32 v70,2013-05-07 08:03:00,
2013-05-07 04:08:00,47.0,46.7,29.78,West,270,1.0,7.0,99,0.00,,,0.00,Weather View 32 v70,2013-05-07 08:08:00,
2013-05-07 04:13:00,47.0,46.7,29.78,West,270,2.0,7.0,99,0.00,,,0.00,Weather View 32 v70,2013-05-07 08:13:00,
2013-05-07 04:18:00,47.0,46.7,29.78,WNW,292,1.0,7.0,99,0.00,,,0.00,Weather View 32 v70,2013-05-07 08:18:00,
2013-05-07 04:23:00,47.0,46.7,29.78,WSW,248,2.0,7.0,99,0.00,,,0.00,Weather View 32 v70,2013-05-07 08:23:00,
2013-05-07 04:28:00,47.0,46.7,29.78,WSW,248,2.0,7.0,99,0.00,,,0.00,Weather View 32 v70,2013-05-07 08:28:00,
2013-05-07 04:33:00,47.0,46.7,29.78,WSW,248,2.0,6.0,99,0.00,,,0.00,Weather View 32 v70,2013-05-07 08:33:00,
2013-05-07 04:38:00,47.0,46.7,29.78,WSW,248,2.0,6.0,99,0.00,,,0.00,Weather View 32 v70,2013-05-07 08:38:00,
2013-05-07 04:43:00,46.0,45.7,29.77,WSW,248,2.0,6.0,99,0.00,,,0.00,Weather View 32 v70,2013-05-07 08:43:00,
2013-05-07 04:48:00,46.0,45.7,29.77,WNW,292,2.0,5.0,99,0.00,,,0.00,Weather View 32 v70,2013-05-07 08:48:00,
2013-05-07 04:53:00,46.0,46.0,29.77,West,270,4.0,6.0,100,0.00,,,0.00,Weather View 32 v70,2013-05-07 08:53:00,
2013-05-07 04:58:00,47.0,47.0,29.77,WNW,292,2.0,6.0,100,0.00,,,0.00,Weather View 32 v70,2013-05-07 08:58:00,
2013-05-07 05:03:00,47.0,47.0,29.78,WSW,248,1.0,6.0,100,0.00,,,0.00,Weather View 32 v70,2013-05-07 09:03:00,
2013-05-07 05:08:00,46.0,46.0,29.78,WSW,248,2.0,6.0,100,0.00,,,0.00,Weather View 32 v70,2013-05-07 09:08:00,
2013-05-07 05:13:00,46.0,46.0,29.77,West,270,1.0,6.0,100,0.00,,,0.00,Weather View 32 v70,2013-05-07 09:13:00,
2013-05-07 05:18:00,46.0,46.0,29.77,WSW,248,3.0,6.0,100,0.00,,,0.00,Weather View 32 v70,2013-05-07 09:18:00,
2013-05-07 05:23:00,46.0,46.0,29.78,West,270,1.0,6.0,100,0.00,,,0.00,Weather View 32 v70,2013-05-07 09:23:00,
2013-05-07 05:28:00,46.0,46.0,29.77,West,270,4.0,6.0,100,0.00,,,0.00,Weather View 32 v70,2013-05-07 09:28:00,
2013-05-07 05:33:00,46.0,46.0,29.77,WNW,292,1.0,6.0,100,0.00,,,0.00,Weather View 32 v70,2013-05-07 09:33:00,
2013-05-07 05:38:00,46.0,46.0,29.77,WSW,248,3.0,6.0,100,0.00,,,0.00,Weather View 32 v70,2013-05-07 09:38:00,
2013-05-07 05:43:00,46.0,46.0,29.78,WSW,248,3.0,6.0,100,0.00,,,0.00,Weather View 32 v70,2013-05-07 09:43:00,
2013-05-07 05:48:00,47.0,47.0,29.78,WSW,248,2.0,7.0,100,0.00,,,0.00,Weather View 32 v70,2013-05-07 09:48:00,
2013-05-07 05:53:00,47.0,47.0,29.78,NW,315,0.0,7.0,100,0.00,,,0.00,Weather View 32 v70,2013-05-07 09:53:00,
2013-05-07 05:58:00,47.0,47.0,29.78,WNW,292,1.0,7.0,100,0.00,,,0.00,Weather View 32 v70,2013-05-07 09:58:00,
2013-05-07 06:03:00,46.0,46.0,29.78,ENE,68,0.0,7.0,100,0.00,,,0.00,Weather View 32 v70,2013-05-07 10:03:00,
2013-05-07 06:08:00,46.0,46.0,29.78,West,270,1.0,7.0,100,0.00,,,0.00,Weather View 32 v70,2013-05-07 10:08:00,
2013-05-07 06:13:00,46.0,46.0,29.78,WSW,248,3.0,7.0,100,0.00,,,0.00,Weather View 32 v70,2013-05-07 10:13:00,
2013-05-07 06:18:00,46.0,46.0,29.78,West,270,2.0,7.0,100,0.00,,,0.00,Weather View 32 v70,2013-05-07 10:18:00,
2013-05-07 06:23:00,46.0,46.0,29.79,SW,225,2.0,7.0,100,0.00,,,0.00,Weather View 32 v70,2013-05-07 10:23:00,
2013-05-07 06:28:00,46.0,46.0,29.79,WSW,248,3.0,7.0,100,0.00,,,0.00,Weather View 32 v70,2013-05-07 10:28:00,
2013-05-07 06:33:00,46.0,46.0,29.79,WSW,248,1.0,7.0,100,0.00,,,0.00,Weather View 32 v70,2013-05-07 10:33:00,
2013-05-07 06:38:00,46.0,46.0,29.79,WNW,292,3.0,7.0,100,0.00,,,0.00,Weather View 32 v70,2013-05-07 10:38:00,
2013-05-07 06:43:00,46.0,46.0,29.79,North,0,2.0,7.0,100,0.00,,,0.00,Weather View 32 v70,2013-05-07 10:43:00,
2013-05-07 06:48:00,46.0,46.0,29.79,WNW,292,1.0,5.0,100,0.00,,,0.00,Weather View 32 v70,2013-05-07 10:48:00,
2013-05-07 06:53:00,46.0,46.0,29.80,West,270,4.0,5.0,100,0.00,,,0.00,Weather View 32 v70,2013-05-07 10:53:00,
2013-05-07 07:00:00,46.0,46.0,29.80,West,270,2.0,5.0,100,0.00,,,0.00,Weather View 32 v70,2013-05-07 11:00:00,
2013-05-07 07:05:00,46.0,46.0,29.80,ENE,68,1.0,5.0,100,0.00,,,0.00,Weather View 32 v70,2013-05-07 11:05:00,
2013-05-07 07:10:00,46.0,46.0,29.80,WNW,292,3.0,5.0,100,0.00,,,0.00,Weather View 32 v70,2013-05-07 11:10:00,
2013-05-07 07:15:00,46.0,46.0,29.81,ESE,112,1.0,5.0,100,0.00,,,0.00,Weather View 32 v70,2013-05-07 11:15:00,
2013-05-07 07:20:00,46.0,46.0,29.81,ENE,68,0.0,5.0,100,0.00,,,0.00,Weather View 32 v70,2013-05-07 11:20:00,
2013-05-07 07:25:00,46.0,46.0,29.81,NNW,338,1.0,5.0,100,0.00,,,0.00,Weather View 32 v70,2013-05-07 11:25:00,
2013-05-07 07:30:00,46.0,46.0,29.81,SSW,202,0.0,6.0,100,0.00,,,0.00,Weather View 32 v70,2013-05-07 11:30:00,
2013-05-07 07:35:00,46.0,46.0,29.81,NNE,22,2.0,6.0,100,0.00,,,0.00,Weather View 32 v70,2013-05-07 11:35:00,
2013-05-07 07:40:00,47.0,47.0,29.81,NW,315,2.0,6.0,100,0.00,,,0.00,Weather View 32 v70,2013-05-07 11:40:00,
2013-05-07 07:45:00,47.0,47.0,29.81,NNE,22,2.0,7.0,100,0.00,,,0.00,Weather View 32 v70,2013-05-07 11:45:00,
2013-05-07 07:50:00,47.0,47.0,29.81,North,0,3.0,7.0,100,0.00,,,0.00,Weather View 32 v70,2013-05-07 11:50:00,
2013-05-07 07:55:00,47.0,47.0,29.81,NNW,338,4.0,10.0,100,0.00,,,0.00,Weather View 32 v70,2013-05-07 11:55:00,
2013-05-07 08:00:00,48.0,48.0,29.81,WNW,292,2.0,11.0,100,0.00,,,0.00,Weather View 32 v70,2013-05-07 12:00:00,
2013-05-07 08:05:00,48.0,48.0,29.82,NNW,338,3.0,11.0,100,0.00,,,0.00,Weather View 32 v70,2013-05-07 12:05:00,
2013-05-07 08:10:00,48.0,48.0,29.82,North,0,3.0,11.0,100,0.00,,,0.00,Weather View 32 v70,2013-05-07 12:10:00,
2013-05-07 08:15:00,48.0,48.0,29.82,NNW,338,3.0,11.0,100,0.00,,,0.00,Weather View 32 v70,2013-05-07 12:15:00,
2013-05-07 08:20:00,49.0,49.0,29.82,North,0,2.0,11.0,100,0.00,,,0.00,Weather View 32 v70,2013-05-07 12:20:00,
2013-05-07 08:25:00,49.0,49.0,29.82,NNE,22,2.0,11.0,100,0.00,,,0.00,Weather View 32 v70,2013-05-07 12:25:00,
2013-05-07 08:30:00,49.0,49.0,29.82,NNW,338,3.0,11.0,100,0.00,,,0.00,Weather View 32 v70,2013-05-07 12:30:00,
2013-05-07 08:35:00,49.0,49.0,29.82,NNE,22,4.0,11.0,100,0.00,,,0.00,Weather View 32 v70,2013-05-07 12:35:00,
2013-05-07 08:40:00,49.0,49.0,29.82,NE,45,3.0,11.0,100,0.00,,,0.00,Weather View 32 v70,2013-05-07 12:40:00,
2013-05-07 08:45:00,50.0,50.0,29.83,WNW,292,3.0,11.0,100,0.00,,,0.00,Weather View 32 v70,2013-05-07 12:45:00,
2013-05-07 08:50:00,50.0,50.0,29.83,West,270,2.0,11.0,100,0.00,,,0.00,Weather View 32 v70,2013-05-07 12:50:00,
2013-05-07 08:55:00,50.0,50.0,29.83,ENE,68,5.0,11.0,100,0.00,,,0.00,Weather View 32 v70,2013-05-07 12:55:00,
2013-05-07 09:00:00,50.0,49.5,29.83,NNW,338,4.0,10.0,98,0.00,,,0.00,Weather View 32 v70,2013-05-07 13:00:00,
2013-05-07 09:05:00,50.0,49.5,29.83,NNW,338,5.0,10.0,98,0.00,,,0.00,Weather View 32 v70,2013-05-07 13:05:00,
2013-05-07 09:10:00,50.0,49.5,29.83,ENE,68,2.0,10.0,98,0.00,,,0.00,Weather View 32 v70,2013-05-07 13:10:00,
2013-05-07 09:15:00,51.0,50.5,29.83,NNE,22,5.0,10.0,98,0.00,,,0.00,Weather View 32 v70,2013-05-07 13:15:00,
2013-05-07 09:20:00,51.0,50.2,29.83,NNE,22,3.0,10.0,97,0.00,,,0.00,Weather View 32 v70,2013-05-07 13:20:00,
2013-05-07 09:25:00,51.0,50.2,29.83,NW,315,5.0,10.0,97,0.00,,,0.00,Weather View 32 v70,2013-05-07 13:25:00,
2013-05-07 09:30:00,52.0,50.9,29.83,NNW,338,6.0,10.0,96,0.00,,,0.00,Weather View 32 v70,2013-05-07 13:30:00,
2013-05-07 09:35:00,52.0,50.6,29.83,North,0,3.0,10.0,95,0.00,,,0.00,Weather View 32 v70,2013-05-07 13:35:00,
2013-05-07 09:40:00,52.0,50.3,29.83,NNW,338,5.0,10.0,94,0.00,,,0.00,Weather View 32 v70,2013-05-07 13:40:00,
2013-05-07 09:45:00,53.0,51.0,29.83,NNW,338,5.0,10.0,93,0.00,,,0.00,Weather View 32 v70,2013-05-07 13:45:00,
2013-05-07 09:50:00,53.0,50.4,29.83,NNW,338,3.0,10.0,91,0.00,,,0.00,Weather View 32 v70,2013-05-07 13:50:00,
2013-05-07 09:55:00,54.0,51.7,29.83,ENE,68,2.0,10.0,92,0.00,,,0.00,Weather View 32 v70,2013-05-07 13:55:00,
2013-05-07 10:00:00,54.0,51.1,29.83,North,0,3.0,10.0,90,0.00,,,0.00,Weather View 32 v70,2013-05-07 14:00:00,
2013-05-07 10:05:00,55.0,52.1,29.83,NNE,22,5.0,10.0,90,0.00,,,0.00,Weather View 32 v70,2013-05-07 14:05:00,
2013-05-07 10:10:00,56.0,52.5,29.83,NNW,338,3.0,11.0,88,0.00,,,0.00,Weather View 32 v70,2013-05-07 14:10:00,
2013-05-07 10:15:00,56.0,51.2,29.83,North,0,3.0,11.0,84,0.00,,,0.00,Weather View 32 v70,2013-05-07 14:15:00,
2013-05-07 10:20:00,57.0,52.2,29.83,NNW,338,5.0,11.0,84,0.00,,,0.00,Weather View 32 v70,2013-05-07 14:20:00,
2013-05-07 10:25:00,57.0,52.2,29.83,NNW,338,6.0,11.0,84,0.00,,,0.00,Weather View 32 v70,2013-05-07 14:25:00,
2013-05-07 10:30:00,58.0,52.9,29.83,NNE,22,5.0,11.0,83,0.00,,,0.00,Weather View 32 v70,2013-05-07 14:30:00,
2013-05-07 10:35:00,59.0,53.5,29.83,NNE,22,6.0,11.0,82,0.00,,,0.00,Weather View 32 v70,2013-05-07 14:35:00,
2013-05-07 10:40:00,60.0,54.1,29.83,NE,45,1.0,11.0,81,0.00,,,0.00,Weather View 32 v70,2013-05-07 14:40:00,
2013-05-07 10:45:00,61.0,54.4,29.83,ENE,68,3.0,11.0,79,0.00,,,0.00,Weather View 32 v70,2013-05-07 14:45:00,
2013-05-07 10:50:00,61.0,53.0,29.83,WNW,292,1.0,11.0,75,0.00,,,0.00,Weather View 32 v70,2013-05-07 14:50:00,
2013-05-07 10:55:00,61.0,52.3,29.83,North,0,5.0,11.0,73,0.00,,,0.00,Weather View 32 v70,2013-05-07 14:55:00,
2013-05-07 11:00:00,61.0,52.6,29.83,ENE,68,4.0,11.0,74,0.00,,,0.00,Weather View 32 v70,2013-05-07 15:00:00,
2013-05-07 11:05:00,62.0,52.1,29.83,North,0,2.0,11.0,70,0.00,,,0.00,Weather View 32 v70,2013-05-07 15:05:00,
2013-05-07 11:10:00,63.0,53.8,29.83,NE,45,5.0,11.0,72,0.00,,,0.00,Weather View 32 v70,2013-05-07 15:10:00,
2013-05-07 11:15:00,63.0,52.6,29.83,North,0,5.0,11.0,69,0.00,,,0.00,Weather View 32 v70,2013-05-07 15:15:00,
2013-05-07 11:20:00,63.0,51.4,29.83,ESE,112,3.0,11.0,66,0.00,,,0.00,Weather View 32 v70,2013-05-07 15:20:00,
2013-05-07 11:25:00,63.0,51.4,29.83,NE,45,3.0,11.0,66,0.00,,,0.00,Weather View 32 v70,2013-05-07 15:25:00,
2013-05-07 11:30:00,64.0,53.2,29.83,NNE,22,5.0,11.0,68,0.00,,,0.00,Weather View 32 v70,2013-05-07 15:30:00,
2013-05-07 11:35:00,64.0,51.5,29.83,NNE,22,7.0,11.0,64,0.00,,,0.00,Weather View 32 v70,2013-05-07 15:35:00,
2013-05-07 11:40:00,64.0,49.3,29.83,North,0,5.0,11.0,59,0.00,,,0.00,Weather View 32 v70,2013-05-07 15:40:00,
2013-05-07 11:45:00,65.0,50.7,29.83,NNE,22,4.0,11.0,60,0.00,,,0.00,Weather View 32 v70,2013-05-07 15:45:00,
2013-05-07 11:50:00,64.0,48.9,29.83,NNW,338,1.0,11.0,58,0.00,,,0.00,Weather View 32 v70,2013-05-07 15:50:00,
2013-05-07 11:55:00,64.0,51.1,29.83,NE,45,3.0,11.0,63,0.00,,,0.00,Weather View 32 v70,2013-05-07 15:55:00,
2013-05-07 12:00:00,63.0,50.2,29.83,NE,45,4.0,11.0,63,0.00,,,0.00,Weather View 32 v70,2013-05-07 16:00:00,
2013-05-07 12:05:00,63.0,52.2,29.83,NE,45,4.0,11.0,68,0.00,,,0.00,Weather View 32 v70,2013-05-07 16:05:00,
2013-05-07 12:10:00,63.0,51.4,29.83,NE,45,5.0,11.0,66,0.00,,,0.00,Weather View 32 v70,2013-05-07 16:10:00,
2013-05-07 12:15:00,63.0,49.7,29.83,NNE,22,3.0,11.0,62,0.00,,,0.00,Weather View 32 v70,2013-05-07 16:15:00,
2013-05-07 12:20:00,65.0,52.9,29.83,NE,45,4.0,11.0,65,0.00,,,0.00,Weather View 32 v70,2013-05-07 16:20:00,
2013-05-07 12:25:00,66.0,53.4,29.83,East,90,4.0,11.0,64,0.00,,,0.00,Weather View 32 v70,2013-05-07 16:25:00,
2013-05-07 12:30:00,67.0,50.3,29.83,West,270,3.0,10.0,55,0.00,,,0.00,Weather View 32 v70,2013-05-07 16:30:00,
2013-05-07 12:35:00,66.0,49.8,29.82,NNE,22,3.0,10.0,56,0.00,,,0.00,Weather View 32 v70,2013-05-07 16:35:00,
2013-05-07 12:40:00,65.0,51.2,29.82,NNE,22,3.0,9.0,61,0.00,,,0.00,Weather View 32 v70,2013-05-07 16:40:00,
2013-05-07 12:45:00,64.0,49.3,29.82,WNW,292,3.0,9.0,59,0.00,,,0.00,Weather View 32 v70,2013-05-07 16:45:00,
2013-05-07 12:50:00,63.0,50.2,29.82,NNE,22,2.0,9.0,63,0.00,,,0.00,Weather View 32 v70,2013-05-07 16:50:00,
2013-05-07 12:55:00,62.0,48.8,29.82,ENE,68,1.0,9.0,62,0.00,,,0.00,Weather View 32 v70,2013-05-07 16:55:00,
2013-05-07 13:00:00,62.0,50.1,29.82,NE,45,1.0,9.0,65,0.00,,,0.00,Weather View 32 v70,2013-05-07 17:00:00,
2013-05-07 13:05:00,62.0,49.2,29.82,NE,45,2.0,9.0,63,0.00,,,0.00,Weather View 32 v70,2013-05-07 17:05:00,
2013-05-07 13:10:00,62.0,48.8,29.82,NNE,22,3.0,9.0,62,0.00,,,0.00,Weather View 32 v70,2013-05-07 17:10:00,
2013-05-07 13:15:00,61.0,48.7,29.82,NNE,22,3.0,9.0,64,0.00,,,0.00,Weather View 32 v70,2013-05-07 17:15:00,
2013-05-07 13:20:00,61.0,48.7,29.82,ENE,68,5.0,8.0,64,0.00,,,0.00,Weather View 32 v70,2013-05-07 17:20:00,
2013-05-07 13:25:00,61.0,50.7,29.82,NE,45,3.0,10.0,69,0.00,,,0.00,Weather View 32 v70,2013-05-07 17:25:00,
2013-05-07 13:30:00,60.0,46.9,29.82,ESE,112,6.0,11.0,62,0.00,,,0.00,Weather View 32 v70,2013-05-07 17:30:00,
2013-05-07 13:35:00,60.0,48.6,29.82,ESE,112,1.0,11.0,66,0.00,,,0.00,Weather View 32 v70,2013-05-07 17:35:00,
2013-05-07 13:40:00,60.0,49.0,29.82,East,90,3.0,11.0,67,0.00,,,0.00,Weather View 32 v70,2013-05-07 17:40:00,
2013-05-07 13:45:00,60.0,47.8,29.81,East,90,3.0,11.0,64,0.00,,,0.00,Weather View 32 v70,2013-05-07 17:45:00,
2013-05-07 13:50:00,61.0,49.1,29.81,SSE,158,0.0,11.0,65,0.00,,,0.00,Weather View 32 v70,2013-05-07 17:50:00,
2013-05-07 13:55:00,62.0,50.1,29.81,NNW,338,2.0,11.0,65,0.00,,,0.00,Weather View 32 v70,2013-05-07 17:55:00,
2013-05-07 14:00:00,63.0,50.2,29.81,West,270,3.0,11.0,63,0.00,,,0.00,Weather View 32 v70,2013-05-07 18:00:00,
2013-05-07 14:05:00,64.0,48.4,29.81,SSW,202,4.0,11.0,57,0.00,,,0.00,Weather View 32 v70,2013-05-07 18:05:00,
2013-05-07 14:10:00,64.0,47.9,29.81,WSW,248,2.0,11.0,56,0.00,,,0.00,Weather View 32 v70,2013-05-07 18:10:00,
2013-05-07 14:15:00,63.0,47.5,29.81,NNE,22,1.0,11.0,57,0.00,,,0.00,Weather View 32 v70,2013-05-07 18:15:00,
2013-05-07 14:20:00,63.0,48.9,29.81,SE,135,3.0,11.0,60,0.00,,,0.00,Weather View 32 v70,2013-05-07 18:20:00,
2013-05-07 14:25:00,63.0,48.4,29.81,SSE,158,1.0,11.0,59,0.00,,,0.00,Weather View 32 v70,2013-05-07 18:25:00,
2013-05-07 14:30:00,64.0,49.8,29.81,SE,135,1.0,7.0,60,0.00,,,0.00,Weather View 32 v70,2013-05-07 18:30:00,
2013-05-07 14:35:00,64.0,49.8,29.81,WNW,292,2.0,7.0,60,0.00,,,0.00,Weather View 32 v70,2013-05-07 18:35:00,
2013-05-07 14:40:00,65.0,51.2,29.81,North,0,3.0,7.0,61,0.00,,,0.00,Weather View 32 v70,2013-05-07 18:40:00,
2013-05-07 14:45:00,65.0,52.1,29.80,NNE,22,5.0,9.0,63,0.00,,,0.00,Weather View 32 v70,2013-05-07 18:45:00,
2013-05-07 14:50:00,66.0,50.3,29.80,NE,45,5.0,10.0,57,0.00,,,0.00,Weather View 32 v70,2013-05-07 18:50:00,
2013-05-07 14:55:00,66.0,50.8,29.80,NE,45,1.0,10.0,58,0.00,,,0.00,Weather View 32 v70,2013-05-07 18:55:00,
2013-05-07 15:00:00,66.0,49.8,29.80,WNW,292,1.0,10.0,56,0.00,,,0.00,Weather View 32 v70,2013-05-07 19:00:00,
2013-05-07 15:06:00,66.0,50.3,29.80,North,0,1.0,10.0,57,0.00,,,0.00,Weather View 32 v70,2013-05-07 19:06:00,
2013-05-07 15:11:00,66.0,51.2,29.80,NNE,22,1.0,10.0,59,0.00,,,0.00,Weather View 32 v70,2013-05-07 19:11:00,
2013-05-07 15:16:00,64.0,49.8,29.80,West,270,5.0,10.0,60,0.00,,,0.00,Weather View 32 v70,2013-05-07 19:16:00,
2013-05-07 15:21:00,64.0,52.0,29.79,ENE,68,3.0,10.0,65,0.00,,,0.00,Weather View 32 v70,2013-05-07 19:21:00,
2013-05-07 15:26:00,63.0,50.2,29.80,SW,225,4.0,10.0,63,0.00,,,0.00,Weather View 32 v70,2013-05-07 19:26:00,
2013-05-07 15:31:00,61.0,51.1,29.80,SW,225,3.0,10.0,70,0.01,,,0.01,Weather View 32 v70,2013-05-07 19:31:00,
2013-05-07 15:36:00,60.0,53.5,29.80,SSE,158,2.0,10.0,79,0.05,,,0.05,Weather View 32 v70,2013-05-07 19:36:00,
2013-05-07 15:41:00,58.0,52.5,29.80,South,180,2.0,10.0,82,0.10,,,0.10,Weather View 32 v70,2013-05-07 19:41:00,
2013-05-07 15:46:00,58.0,53.5,29.80,SSW,202,1.0,10.0,85,0.11,,,0.11,Weather View 32 v70,2013-05-07 19:46:00,
2013-05-07 15:51:00,57.0,53.5,29.80,South,180,3.0,7.0,88,0.11,,,0.11,Weather View 32 v70,2013-05-07 19:51:00,
2013-05-07 15:56:00,57.0,53.8,29.80,SSW,202,1.0,7.0,89,0.11,,,0.11,Weather View 32 v70,2013-05-07 19:56:00,
2013-05-07 16:01:00,56.0,53.1,29.80,ESE,112,1.0,7.0,90,0.11,,,0.11,Weather View 32 v70,2013-05-07 20:01:00,
2013-05-07 16:06:00,55.0,52.4,29.80,SSW,202,1.0,7.0,91,0.11,,,0.11,Weather View 32 v70,2013-05-07 20:06:00,
2013-05-07 16:11:00,55.0,53.0,29.80,SSE,158,1.0,7.0,93,0.11,,,0.11,Weather View 32 v70,2013-05-07 20:11:00,
2013-05-07 16:16:00,56.0,54.9,29.80,NW,315,0.0,7.0,96,0.15,,,0.15,Weather View 32 v70,2013-05-07 20:16:00,
2013-05-07 16:21:00,56.0,55.2,29.80,SE,135,1.0,7.0,97,0.15,,,0.15,Weather View 32 v70,2013-05-07 20:21:00,
2013-05-07 16:26:00,55.0,53.9,29.80,SW,225,1.0,6.0,96,0.15,,,0.15,Weather View 32 v70,2013-05-07 20:26:00,
2013-05-07 16:31:00,55.0,53.9,29.80,ENE,68,1.0,6.0,96,0.14,,,0.15,Weather View 32 v70,2013-05-07 20:31:00,
2013-05-07 16:36:00,55.0,54.2,29.80,North,0,2.0,6.0,97,0.10,,,0.15,Weather View 32 v70,2013-05-07 20:36:00,
2013-05-07 16:41:00,54.0,53.2,29.80,SE,135,1.0,6.0,97,0.05,,,0.15,Weather View 32 v70,2013-05-07 20:41:00,
2013-05-07 16:46:00,55.0,54.4,29.81,NNE,22,1.0,6.0,98,0.04,,,0.15,Weather View 32 v70,2013-05-07 20:46:00,
2013-05-07 16:51:00,55.0,54.7,29.81,ENE,68,5.0,6.0,99,0.04,,,0.15,Weather View 32 v70,2013-05-07 20:51:00,
2013-05-07 16:56:00,55.0,54.7,29.82,NNE,22,10.0,10.0,99,0.04,,,0.15,Weather View 32 v70,2013-05-07 20:56:00,
2013-05-07 17:01:00,54.0,53.4,29.82,NE,45,6.0,10.0,98,0.04,,,0.15,Weather View 32 v70,2013-05-07 21:01:00,
2013-05-07 17:07:00,53.0,52.2,29.82,NNE,22,5.0,10.0,97,0.04,,,0.15,Weather View 32 v70,2013-05-07 21:07:00,
2013-05-07 17:12:00,53.0,52.4,29.82,NW,315,2.0,10.0,98,0.03,,,0.15,Weather View 32 v70,2013-05-07 21:12:00,
2013-05-07 17:17:00,53.0,52.4,29.82,East,90,2.0,10.0,98,0.01,,,0.16,Weather View 32 v70,2013-05-07 21:17:00,
2013-05-07 17:22:00,53.0,52.4,29.82,SE,135,2.0,10.0,98,0.02,,,0.17,Weather View 32 v70,2013-05-07 21:22:00,
2013-05-07 17:27:00,53.0,52.7,29.81,East,90,1.0,10.0,99,0.02,,,0.17,Weather View 32 v70,2013-05-07 21:27:00,
2013-05-07 17:32:00,53.0,52.7,29.82,ENE,68,1.0,10.0,99,0.02,,,0.17,Weather View 32 v70,2013-05-07 21:32:00,
2013-05-07 17:37:00,53.0,53.0,29.82,ENE,68,1.0,10.0,100,0.02,,,0.17,Weather View 32 v70,2013-05-07 21:37:00,
2013-05-07 17:42:00,54.0,54.0,29.82,South,180,0.0,10.0,100,0.02,,,0.17,Weather View 32 v70,2013-05-07 21:42:00,
2013-05-07 17:47:00,54.0,54.0,29.82,ESE,112,1.0,10.0,100,0.02,,,0.17,Weather View 32 v70,2013-05-07 21:47:00,
2013-05-07 17:52:00,54.0,54.0,29.82,ENE,68,0.0,10.0,100,0.02,,,0.17,Weather View 32 v70,2013-05-07 21:52:00,
2013-05-07 17:57:00,54.0,54.0,29.81,ESE,112,1.0,10.0,100,0.02,,,0.17,Weather View 32 v70,2013-05-07 21:57:00,
2013-05-07 18:02:00,54.0,54.0,29.82,ESE,112,0.0,9.0,100,0.02,,,0.17,Weather View 32 v70,2013-05-07 22:02:00,
2013-05-07 18:07:00,54.0,54.0,29.82,NE,45,0.0,8.0,100,0.02,,,0.17,Weather View 32 v70,2013-05-07 22:07:00,
2013-05-07 18:12:00,54.0,54.0,29.82,ENE,68,0.0,5.0,100,0.02,,,0.17,Weather View 32 v70,2013-05-07 22:12:00,
2013-05-07 18:17:00,54.0,54.0,29.83,NNE,22,0.0,5.0,100,0.01,,,0.17,Weather View 32 v70,2013-05-07 22:17:00,
2013-05-07 18:22:00,54.0,54.0,29.83,NE,45,0.0,5.0,100,0.00,,,0.17,Weather View 32 v70,2013-05-07 22:22:00,
2013-05-07 18:27:00,54.0,54.0,29.83,ENE,68,0.0,5.0,100,0.00,,,0.17,Weather View 32 v70,2013-05-07 22:27:00,
2013-05-07 18:32:00,55.0,55.0,29.83,NNE,22,3.0,5.0,100,0.00,,,0.17,Weather View 32 v70,2013-05-07 22:32:00,
2013-05-07 18:37:00,54.0,54.0,29.83,ENE,68,1.0,5.0,100,0.00,,,0.17,Weather View 32 v70,2013-05-07 22:37:00,
2013-05-07 18:42:00,54.0,54.0,29.83,NE,45,2.0,5.0,100,0.00,,,0.17,Weather View 32 v70,2013-05-07 22:42:00,
2013-05-07 18:47:00,54.0,54.0,29.82,North,0,4.0,5.0,100,0.00,,,0.17,Weather View 32 v70,2013-05-07 22:47:00,
2013-05-07 18:52:00,55.0,55.0,29.83,NE,45,4.0,5.0,100,0.00,,,0.17,Weather View 32 v70,2013-05-07 22:52:00,
2013-05-07 18:57:00,55.0,55.0,29.83,North,0,3.0,6.0,100,0.00,,,0.17,Weather View 32 v70,2013-05-07 22:57:00,
2013-05-07 19:02:00,55.0,55.0,29.84,ENE,68,1.0,6.0,100,0.00,,,0.17,Weather View 32 v70,2013-05-07 23:02:00,
2013-05-07 19:07:00,55.0,55.0,29.84,NNW,338,1.0,6.0,100,0.00,,,0.17,Weather View 32 v70,2013-05-07 23:07:00,
2013-05-07 19:12:00,54.0,54.0,29.84,NE,45,1.0,6.0,100,0.00,,,0.17,Weather View 32 v70,2013-05-07 23:12:00,
2013-05-07 19:17:00,54.0,54.0,29.84,West,270,0.0,6.0,100,0.00,,,0.17,Weather View 32 v70,2013-05-07 23:17:00,
2013-05-07 19:22:00,54.0,54.0,29.84,SSE,158,0.0,6.0,100,0.00,,,0.17,Weather View 32 v70,2013-05-07 23:22:00,
2013-05-07 19:27:00,54.0,54.0,29.84,WSW,248,0.0,6.0,100,0.00,,,0.17,Weather View 32 v70,2013-05-07 23:27:00,
2013-05-07 19:32:00,53.0,53.0,29.84,WSW,248,1.0,6.0,100,0.00,,,0.17,Weather View 32 v70,2013-05-07 23:32:00,
2013-05-07 19:38:00,53.0,53.0,29.84,WSW,248,1.0,6.0,100,0.00,,,0.17,Weather View 32 v70,2013-05-07 23:38:00,
2013-05-07 19:43:00,53.0,53.0,29.85,SW,225,1.0,6.0,100,0.00,,,0.17,Weather View 32 v70,2013-05-07 23:43:00,
2013-05-07 19:48:00,53.0,53.0,29.84,SSW,202,2.0,6.0,100,0.00,,,0.17,Weather View 32 v70,2013-05-07 23:48:00,
2013-05-07 19:53:00,53.0,53.0,29.85,SSW,202,1.0,6.0,100,0.00,,,0.17,Weather View 32 v70,2013-05-07 23:53:00,
2013-05-07 19:58:00,53.0,53.0,29.85,East,90,0.0,4.0,100,0.00,,,0.17,Weather View 32 v70,2013-05-07 23:58:00,
2013-05-07 20:03:00,53.0,52.7,29.85,SW,225,1.0,4.0,99,0.00,,,0.17,Weather View 32 v70,2013-05-08 00:03:00,
2013-05-07 20:08:00,53.0,52.7,29.86,West,270,1.0,4.0,99,0.00,,,0.17,Weather View 32 v70,2013-05-08 00:08:00,
2013-05-07 20:13:00,53.0,52.4,29.86,West,270,1.0,4.0,98,0.00,,,0.17,Weather View 32 v70,2013-05-08 00:13:00,
2013-05-07 20:18:00,53.0,52.4,29.86,West,270,1.0,4.0,98,0.00,,,0.17,Weather View 32 v70,2013-05-08 00:18:00,
2013-05-07 20:23:00,53.0,52.4,29.86,SSE,158,1.0,4.0,98,0.00,,,0.17,Weather View 32 v70,2013-05-08 00:23:00,
2013-05-07 20:28:00,53.0,52.4,29.86,WSW,248,2.0,4.0,98,0.00,,,0.17,Weather View 32 v70,2013-05-08 00:28:00,
2013-05-07 20:33:00,53.0,52.4,29.86,SW,225,2.0,4.0,98,0.00,,,0.17,Weather View 32 v70,2013-05-08 00:33:00,
2013-05-07 20:38:00,53.0,52.4,29.86,NE,45,0.0,4.0,98,0.00,,,0.17,Weather View 32 v70,2013-05-08 00:38:00,
2013-05-07 20:43:00,54.0,53.2,29.86,ESE,112,0.0,5.0,97,0.00,,,0.17,Weather View 32 v70,2013-05-08 00:43:00,
2013-05-07 20:48:00,54.0,53.2,29.86,WSW,248,4.0,5.0,97,0.00,,,0.17,Weather View 32 v70,2013-05-08 00:48:00,
2013-05-07 20:53:00,54.0,52.9,29.86,West,270,3.0,5.0,96,0.00,,,0.17,Weather View 32 v70,2013-05-08 00:53:00,
2013-05-07 20:58:00,54.0,52.9,29.87,SW,225,3.0,5.0,96,0.00,,,0.17,Weather View 32 v70,2013-05-08 00:58:00,
2013-05-07 21:03:00,54.0,52.9,29.87,WSW,248,1.0,5.0,96,0.00,,,0.17,Weather View 32 v70,2013-05-08 01:03:00,
2013-05-07 21:08:00,54.0,52.6,29.87,WSW,248,1.0,5.0,95,0.00,,,0.17,Weather View 32 v70,2013-05-08 01:08:00,
2013-05-07 21:13:00,54.0,52.6,29.87,West,270,1.0,5.0,95,0.00,,,0.17,Weather View 32 v70,2013-05-08 01:13:00,
2013-05-07 21:18:00,54.0,52.3,29.87,SE,135,0.0,5.0,94,0.00,,,0.17,Weather View 32 v70,2013-05-08 01:18:00,
2013-05-07 21:23:00,54.0,52.6,29.87,ESE,112,0.0,5.0,95,0.00,,,0.17,Weather View 32 v70,2013-05-08 01:23:00,
2013-05-07 21:28:00,54.0,52.3,29.87,SSW,202,1.0,5.0,94,0.00,,,0.17,Weather View 32 v70,2013-05-08 01:28:00,
2013-05-07 21:33:00,54.0,52.3,29.87,WNW,292,1.0,5.0,94,0.00,,,0.17,Weather View 32 v70,2013-05-08 01:33:00,
2013-05-07 21:38:00,53.0,51.3,29.87,ENE,68,0.0,5.0,94,0.00,,,0.17,Weather View 32 v70,2013-05-08 01:38:00,
2013-05-07 21:43:00,53.0,51.3,29.87,ESE,112,0.0,5.0,94,0.00,,,0.17,Weather View 32 v70,2013-05-08 01:43:00,
2013-05-07 21:48:00,53.0,51.3,29.87,SSE,158,0.0,5.0,94,0.00,,,0.17,Weather View 32 v70,2013-05-08 01:48:00,
2013-05-07 21:53:00,53.0,51.3,29.87,WSW,248,1.0,3.0,94,0.00,,,0.17,Weather View 32 v70,2013-05-08 01:53:00,
2013-05-07 21:58:00,53.0,51.6,29.87,SSW,202,2.0,3.0,95,0.00,,,0.17,Weather View 32 v70,2013-05-08 01:58:00,
2013-05-07 22:03:00,53.0,51.6,29.87,SSE,158,1.0,3.0,95,0.00,,,0.17,Weather View 32 v70,2013-05-08 02:03:00,
2013-05-07 22:09:00,53.0,51.6,29.87,South,180,1.0,3.0,95,0.00,,,0.17,Weather View 32 v70,2013-05-08 02:09:00,
2013-05-07 22:14:00,53.0,51.6,29.87,WSW,248,0.0,3.0,95,0.00,,,0.17,Weather View 32 v70,2013-05-08 02:14:00,
2013-05-07 22:19:00,53.0,51.6,29.87,SSW,202,1.0,3.0,95,0.00,,,0.17,Weather View 32 v70,2013-05-08 02:19:00,
2013-05-07 22:24:00,53.0,51.6,29.87,SE,135,2.0,3.0,95,0.00,,,0.17,Weather View 32 v70,2013-05-08 02:24:00,
2013-05-07 22:29:00,53.0,51.6,29.87,SE,135,1.0,3.0,95,0.00,,,0.17,Weather View 32 v70,2013-05-08 02:29:00,
2013-05-07 22:34:00,53.0,51.9,29.88,ESE,112,2.0,3.0,96,0.00,,,0.17,Weather View 32 v70,2013-05-08 02:34:00,
2013-05-07 22:39:00,53.0,51.9,29.88,SSE,158,1.0,3.0,96,0.00,,,0.17,Weather View 32 v70,2013-05-08 02:39:00,
2013-05-07 22:44:00,53.0,51.9,29.88,ESE,112,0.0,3.0,96,0.00,,,0.17,Weather View 32 v70,2013-05-08 02:44:00,
2013-05-07 22:49:00,53.0,52.2,29.88,South,180,0.0,3.0,97,0.00,,,0.17,Weather View 32 v70,2013-05-08 02:49:00,
2013-05-07 22:54:00,53.0,52.2,29.88,ESE,112,0.0,3.0,97,0.00,,,0.17,Weather View 32 v70,2013-05-08 02:54:00,
2013-05-07 22:59:00,53.0,52.2,29.88,WNW,292,0.0,3.0,97,0.00,,,0.17,Weather View 32 v70,2013-05-08 02:59:00,
2013-05-07 23:04:00,53.0,52.2,29.87,South,180,0.0,3.0,97,0.00,,,0.17,Weather View 32 v70,2013-05-08 03:04:00,
2013-05-07 23:09:00,53.0,52.2,29.88,SSW,202,1.0,3.0,97,0.00,,,0.17,Weather View 32 v70,2013-05-08 03:09:00,
2013-05-07 23:14:00,53.0,51.9,29.87,SSW,202,3.0,3.0,96,0.00,,,0.17,Weather View 32 v70,2013-05-08 03:14:00,
2013-05-07 23:19:00,53.0,51.9,29.87,SSW,202,2.0,3.0,96,0.00,,,0.17,Weather View 32 v70,2013-05-08 03:19:00,
2013-05-07 23:24:00,53.0,51.9,29.87,SSW,202,2.0,3.0,96,0.00,,,0.17,Weather View 32 v70,2013-05-08 03:24:00,
2013-05-07 23:29:00,53.0,51.9,29.88,WSW,248,2.0,3.0,96,0.00,,,0.17,Weather View 32 v70,2013-05-08 03:29:00,
2013-05-07 23:34:00,53.0,51.9,29.87,SSW,202,1.0,3.0,96,0.00,,,0.17,Weather View 32 v70,2013-05-08 03:34:00,
2013-05-07 23:39:00,53.0,51.9,29.87,WSW,248,2.0,3.0,96,0.00,,,0.17,Weather View 32 v70,2013-05-08 03:39:00,
2013-05-07 23:44:00,53.0,51.6,29.87,WSW,248,1.0,3.0,95,0.00,,,0.17,Weather View 32 v70,2013-05-08 03:44:00,
2013-05-07 23:49:00,53.0,51.6,29.87,West,270,1.0,3.0,95,0.00,,,0.17,Weather View 32 v70,2013-05-08 03:49:00,
2013-05-07 23:54:00,53.0,51.3,29.87,WSW,248,1.0,3.0,94,0.00,,,0.17,Weather View 32 v70,2013-05-08 03:54:00,
2013-05-07 23:59:00,53.0,51.3,29.87,SSW,202,1.0,3.0,94,0.00,,,0.17,Weather View 32 v70,2013-05-08 03:59:00,